Location: *
(55.5817°S, 142.4781°W)
Time: 07:08:36
(UTC+00:00)

CZ-2C R/B - Pass Details

Date: 29 April 2025
Orbit: 781 x 868 km, 98.4° (Epoch: 23 May)

Event Time Altitude Azimuth Distance (km) Brightness Sun altitude
Rises 13:18:47 0° 168° (SSE) 3,484 6.3 -30.0°
Reaches altitude 10° 13:21:27 10° 178° (S) 2,548 5.4 -29.6°
Enters shadow 13:23:55 22° 198° (SSW) 1,835 4.4 -29.3°
